Flag for Switzerland Weather past 2 weeks in Meyrin, Geneva, Switzerland

Now
66 °F

Overcast.


Feels Like: 66 °F
Forecast: 51 / 72 °F
Wind: 2 mph from North

Location: Geneva Cointrin Airport

Current Time: Jul 29, 2015 at 3:04:38 AM

Latest Report: Jul 29, 2015 at 2:20 AM


Visibility: N/A

Pressure: 29.92 "Hg

Humidity: 49%

Dew point: 46 °F

Location of MeyrinLocation

Historic Weather in Meyrin — Graph

°F

Meyrin temperature yesterday

Maximum temperature yesterday: 75 °F (at 2:50 PM)
Minimum temperature yesterday: 61 °F (at 5:20 AM)
Average temperature yesterday: 69 °F

Past Weeks' High & Low Weather Summary

 TemperatureHumidityPressure
High99 °F (Jul 16, 4:50 PM)100% (Jul 22, 8:50 PM)30.21 "Hg (Jul 22, 8:50 PM)
Low54 °F (Jul 26, 4:50 AM)13% (Jul 16, 6:50 PM)29.74 "Hg (Jul 24, 5:20 PM)
Average76 °F54%30.01 "Hg
* Reported Jul 14 1:20 AM — Jul 29 1:50 AM, Meyrin, Weather by CustomWeather, © 2015

Note: Actual official high and low records may vary slightly from our data, if they occured in-between our weather recording intervals... More about our weather records

Advertising

Meyrin weather history for previous 24 hours

 ConditionsComfort  
Time TempWeatherWind HumidityBarometerVisibility
1:50 AM
Wed, Jul 29
66 °FMostly cloudy.3 mph49%29.92 "HgN/A
1:20 AM66 °FMostly cloudy.3 mph49%29.92 "HgN/A
12:50 AM66 °FMostly cloudy.3 mph49%29.92 "HgN/A
11:20 PM
Tue, Jul 28
68 °FPassing clouds.5 mph40%29.95 "HgN/A
10:50 PM70 °FPassing clouds.7 mph38%29.95 "HgN/A
10:20 PM72 °FPassing clouds.5 mph38%29.95 "HgN/A
9:50 PM72 °FPartly sunny.6 mph38%29.92 "HgN/A
9:20 PM72 °FPartly sunny.7 mph38%29.92 "HgN/A
8:50 PM73 °FPartly sunny.7 mph33%29.89 "HgN/A
8:20 PM73 °FPartly sunny.8 mph36%29.89 "HgN/A
7:50 PM73 °FScattered clouds.10 mph33%29.89 "HgN/A
7:20 PM73 °FScattered clouds.9 mph33%29.89 "HgN/A
6:50 PM75 °FPassing clouds.10 mph31%29.89 "HgN/A
6:20 PM75 °FPassing clouds.12 mph31%29.89 "HgN/A
5:50 PM75 °FPassing clouds.12 mph31%29.89 "HgN/A
5:20 PM75 °FPassing clouds.8 mph34%29.89 "HgN/A
4:50 PM75 °FPassing clouds.8 mph34%29.89 "HgN/A
4:20 PM75 °FPassing clouds.10 mph34%29.92 "HgN/A
3:50 PM73 °FPassing clouds.10 mph36%29.92 "HgN/A
3:20 PM73 °FPassing clouds.9 mph36%29.92 "HgN/A
2:50 PM75 °FPassing clouds.13 mph36%29.92 "HgN/A
2:20 PM72 °FPassing clouds.12 mph38%29.92 "HgN/A
1:50 PM73 °FPassing clouds.12 mph36%29.92 "HgN/A
1:20 PM72 °FPassing clouds.12 mph38%29.95 "HgN/A
12:50 PM72 °FPassing clouds.12 mph36%29.95 "HgN/A
12:20 PM72 °FScattered clouds.15 mph36%29.95 "HgN/A
11:20 AM72 °FScattered clouds.15 mph36%29.95 "HgN/A
10:50 AM70 °FPartly sunny.13 mph43%29.95 "HgN/A
10:20 AM68 °FScattered clouds.8 mph46%29.95 "HgN/A
9:50 AM66 °FPassing clouds.12 mph52%29.95 "HgN/A
9:20 AM66 °FScattered clouds.12 mph52%29.95 "HgN/A
8:50 AM66 °FPassing clouds.13 mph52%29.95 "HgN/A
8:20 AM66 °FScattered clouds.8 mph52%29.95 "HgN/A
7:50 AM64 °FScattered clouds.9 mph56%29.95 "HgN/A
7:20 AM64 °FPartly sunny.7 mph60%29.95 "HgN/A
6:50 AM63 °FPassing clouds.2 mph64%29.95 "HgN/A
6:20 AM63 °FPassing clouds.5 mph64%29.95 "HgN/A
5:50 AM63 °FPassing clouds.2 mph64%29.95 "HgN/A
5:20 AM61 °FPassing clouds.5 mph68%29.92 "HgN/A
4:50 AM63 °FPassing clouds.1 mph59%29.92 "HgN/A
4:20 AM66 °FPassing clouds.5 mph52%29.92 "HgN/A
3:50 AM64 °FPassing clouds.10 mph56%29.92 "HgN/A
Weather by CustomWeather, © 2015

See weather overviewHow to use our weather pages